Location: Kumla
(59.1265°N, 15.1401°E)
Time: 21:47:01
(UTC+01:00)

Transit 2A - Pass Details

Date: 04 December 2023
Orbit: 600 x 953 km, 66.7° (Epoch: 24 February)

Event Time Altitude Azimuth Distance (km) Brightness Sun altitude
Rises 16:33:41 0° 215° (SW) 3,133 10.4 -9.8°
Reaches altitude 10° 16:36:08 10° 212° (SSW) 2,161 9.4 -10.1°
Maximum altitude 16:40:56 63° 132° (SE) 736 5.8 -10.7°
Enters shadow 16:44:35 15° 54° (NE) 1,699 7.2 -11.1°
Drops below altitude 10° 16:45:23 10° 52° (NE) 2,007 - -11.2°
Sets 16:47:35 0° 50° (NE) 2,891 - -11.4°
